• Join FlightAware (Why Join?)
  • Login
  • US Flag 
07:24AM EST


 

Airport Tracker/Info


-or-


 

Live Flight TrackerFlight Track Log ✈ EJA809 ✈ 16-May-2014 ✈ KEWN - KRIC

Flight Track Log - Related Links

Times and Time Zones

All times are in EDT time to prevent confusion due to time zone crossing. See the EJA809 flight status page for this flight to view local times or setup timezone preferences in your user account.

Time Position Orientation Groundspeed Altitude Reporting Facility
EDT Latitude Longitude Course Direction KTS MPH feet Rate Location/Type
05:18PM 35.1833 -77.2083 334° Northwest 259 298 22,000  Level Washington Center
05:19PM 35.2619 -77.2608 331° Northwest 289 333 10,100 -4,700 Descending Washington Center
05:20PM 35.3486 -77.3136 334° Northwest 324 373 12,600 2,492 Climbing Washington Center
05:21PM 35.7043 -77.4992 334° Northwest  Level FlightAware Approximate
05:21PM 35.4378 -77.3664 334° Northwest 339 390 15,000  Level Washington Center
05:22PM 35.5244 -77.4219 332° Northwest 344 396 17,500 2,430 Climbing Washington Center
05:23PM 35.6133 -77.4750 334° Northwest 349 402 19,900 2,218 Climbing Washington Center
05:24PM 35.7044 -77.5308 334° Northwest 349 402 21,900 1,059 Climbing Washington Center
05:25PM 35.7972 -77.5894 333° Northwest 381 438 22,000 50 Climbing Washington Center
05:26PM 35.9047 -77.6564 333° Northwest 416 479 22,000  Level Washington Center
05:27PM 36.0183 -77.7131 338° Northwest 427 491 22,000  Level Washington Center
05:28PM 36.1458 -77.7011 North 433 498 22,000 -545 Level Washington Center
05:29PM 36.2694 -77.6658 13° North 442 509 20,900 -1,525 Descending Washington Center
05:30PM 36.3933 -77.6331 12° North 448 516 19,000 -2,017 Descending Washington Center
05:31PM 36.5106 -77.6025 12° North 439 505 16,900 -1,869 Descending Washington Center
05:32PM 36.6217 -77.5692 14° North 421 484 15,200 -1,613 Descending Washington Center
05:33PM 36.7308 -77.5381 13° North 408 470 13,700 -1,613 Descending Washington Center
05:34PM 36.8333 -77.5097 12° North 395 455 12,000 -1,672 Descending Washington Center
05:35PM 36.9339 -77.4808 13° North 374 430 10,300 -1,918 Descending Washington Center
05:36PM 37.0283 -77.4547 12° North 331 381 8,100 -2,034 Descending Washington Center
05:37PM 37.1119 -77.4333 12° North 311 358 6,300 -1,780 Descending Washington Center
05:38PM 37.1894 -77.4194 North 296 341 4,600 -1,180 Descending Washington Center
05:39PM 37.2606 -77.4003 12° North 272 313 3,900 -595 Descending Washington Center
05:40PM 37.3319 -77.3783 14° North 262 302 3,400 -763 Descending Washington Center
05:41PM 37.3906 -77.3614 13° North 250 288 2,400 -1,109 Descending Washington Center
05:42PM 37.4431 -77.3469 12° North 227 261 1,200 -1,033 Descending Washington Center
05:43PM 37.4933 -77.3325 13° North 173 199 300 -885 Descending Washington Center
05:45PM 37.5000 -77.3167 12° North  Level FlightAware Approximate
05:52PM 37.5052 -77.3197 335° Northwest  Level Estimated